Location: Cheyres
(46.8153°N, 6.7877°E)
Time: 13:26:49
(UTC+00:00)

FENGYUN 1C DEB - Pass Details

Date: 04 December 2021
Orbit: 843 x 915 km, 99.0° (Epoch: 18 January)

Event Time Altitude Azimuth Distance (km) Brightness Sun altitude
Exits shadow 18:28:10 23° 4° (N) 1,737 ? -27.0°
Drops below altitude 10° 18:30:17 10° 354° (N) 2,496 ? -27.4°
Sets 18:32:42 0° 350° (N) 3,429 ? -27.8°
